Sacramento, CA

5:28 AM PDT on June 22, 2018 (GMT -0700)
Sacramento Executive

Weather History for KSAC - October, 2017

Change the Weather History Date:

Sunday, October 8, 2017

  Actual Average Record
Temperature  
Mean Temperature 67 °F -  
Max Temperature 81 °F 81 °F 100 °F (1996)
Min Temperature 53 °F 52 °F 44 °F (1968)
Degree Days  
Heating Degree Days 0    
Cooling Degree Days 2    
Growing Degree Days 17 (Base 50)    
Moisture  
Dew Point 37 °F    
Average Humidity 54    
Maximum Humidity 93    
Minimum Humidity 15    
Precipitation  
Precipitation 0.00 in 0.02 in 0.29 in (1997)
Month to date precipitation 0.00 0.13  
Year to date precipitation 23.63 12.37  
Sea Level Pressure  
Sea Level Pressure 29.79 in    
Wind  
Wind Speed 12 mph (NW)    
Max Wind Speed 28 mph    
Max Gust Speed 38 mph    
Visibility 7 miles    
Events      
T = Trace of Precipitation, MM = Missing Value Source: NWS Daily Summary

Daily Weather History Graph

Daily Weather History Graph

Search for Another Location

Airport or City:

Astronomy

Oct. 08, 2017 Rise Set
Actual Time 7:08 AM PDT 6:37 PM PDT
Civil Twilight 6:42 AM PDT 7:04 PM PDT
Nautical Twilight 6:11 AM PDT 7:34 PM PDT
Astronomical Twilight 5:40 AM PDT 8:05 PM PDT
Moon 9:05 PM PDT (10/8) 10:15 AM PDT (10/8)
Length of Visible Light 12h 21m
Length of Day
11h 28m
Waning Gibbous, 88% of the Moon is Illuminated
Oct 8
Waning Gibbous
Oct 12
Last Quarter
Oct 19
New
Oct 27
First Quarter
Nov 3
Full

Hourly Weather History & Observations

Time (PDT) Temp. Dew Point Humidity Pressure Visibility Wind Dir Wind Speed Gust Speed Precip Events Conditions
12:53 AM 60.1 °F 50.0 °F 69% 29.76 in 10.0 mi SE 3.5 mph - N/A   Clear
1:53 AM 60.1 °F 51.1 °F 72% 29.76 in 10.0 mi SSE 3.5 mph - N/A   Clear
2:53 AM 55.9 °F 51.1 °F 84% 29.76 in 10.0 mi South 3.5 mph - N/A   Clear
3:53 AM 54.0 °F 51.1 °F 90% 29.76 in 10.0 mi Calm Calm - N/A   Clear
4:53 AM 54.0 °F 50.0 °F 86% 29.77 in 10.0 mi North 5.8 mph - N/A   Clear
5:53 AM 55.0 °F 48.0 °F 77% 29.78 in 10.0 mi NNW 4.6 mph - N/A   Clear
6:53 AM 55.9 °F 44.1 °F 64% 29.80 in 10.0 mi NNW 8.1 mph - N/A   Clear
7:53 AM 59.0 °F 42.1 °F 53% 29.81 in 10.0 mi NNW 9.2 mph - N/A   Clear
8:53 AM 64.9 °F 41.0 °F 42% 29.82 in 8.0 mi NW 13.8 mph 21.9 mph N/A   Clear
9:53 AM 68.0 °F 37.9 °F 33% 29.83 in 5.0 mi NNW 20.7 mph 29.9 mph N/A   Haze
10:21 AM 69.1 °F 36.0 °F 30% 29.83 in 4.0 mi NNW 20.7 mph 29.9 mph N/A   Haze
10:53 AM 71.1 °F 35.1 °F 27% 29.83 in 4.0 mi NNW 21.9 mph 38.0 mph N/A   Haze
11:53 AM 73.9 °F 34.0 °F 23% 29.83 in 4.0 mi NNW 25.3 mph 33.4 mph N/A   Haze
12:45 PM 75.9 °F 33.1 °F 21% 29.83 in 7.0 mi NNW 20.7 mph 31.1 mph N/A   Partly Cloudy
12:53 PM 77.0 °F 33.1 °F 20% 29.82 in 7.0 mi NNW 20.7 mph 31.1 mph N/A   Partly Cloudy
1:53 PM 79.0 °F 33.1 °F 19% 29.79 in 7.0 mi NNW 19.6 mph 29.9 mph N/A   Partly Cloudy
2:48 PM 80.6 °F 32.0 °F 17% 29.78 in 6.0 mi NNW 20.7 mph 33.4 mph N/A   Haze
2:53 PM 80.1 °F 32.0 °F 17% 29.78 in 7.0 mi NNW 21.9 mph 33.4 mph N/A   Mostly Cloudy
3:00 PM 80.1 °F 30.9 °F 17% 29.78 in 7.0 mi NNW 26.5 mph 33.4 mph N/A   Clear
3:53 PM 80.1 °F 30.0 °F 16% 29.78 in 6.0 mi NW 19.6 mph 27.6 mph N/A   Haze
4:53 PM 79.0 °F 27.0 °F 15% 29.76 in 5.0 mi NW 17.3 mph 33.4 mph N/A   Haze
5:00 PM 79.0 °F 26.1 °F 14% 29.76 in 5.0 mi NW 20.7 mph 32.2 mph N/A   Haze
5:08 PM 79.0 °F 26.1 °F 14% 29.76 in 5.0 mi NW 21.9 mph 33.4 mph N/A   Haze
5:53 PM - - N/A% 29.77 in 6.0 mi NW 23.0 mph 31.1 mph N/A   Haze
6:53 PM 79.0 °F 27.0 °F 15% 29.76 in 10.0 mi NW 18.4 mph 29.9 mph N/A   Clear
7:53 PM 73.0 °F 27.0 °F 18% 29.75 in - NW 19.6 mph 32.2 mph N/A   Unknown
8:53 PM 72.0 °F 27.0 °F 19% 29.77 in 7.0 mi NW 23.0 mph 33.4 mph N/A   Clear
9:53 PM - - N/A% 29.81 in - North - - N/A   Unknown
10:53 PM - - N/A% 29.84 in - North - - N/A   Unknown
11:53 PM - - N/A% 29.84 in - North - - N/A   Unknown